Regional Weather Roundup
Issued by NWS

Home | Current Version | Previous Version | Text Only | Print | Product List | Glossary On
Versions: 1 2 3 4 5 6 7 8 9 10 11 12 13 14 15 16 17 18 19 20 21 22 23 24 25 26 27 28 29 30 31 32 33 34 35 36 37 38 39 40 41 42 43 44 45 46 47 48 49 50
000
ASUS42 KKEY 210710
RWRKEY

FLORIDA REGIONAL WEATHER ROUNDUP FOR THE FLORIDA KEYS
NATIONAL WEATHER SERVICE KEY WEST FLORIDA
300 AM EDT TUE APR 21 2015

...SOUTH FLORIDA AND THE KEYS...

CITY           SKY/WX    TMP DP  RH WIND       PRES   REMARKS
FORT MYERS     PTCLDY    72  68  87 NE3       29.93R
SW REGIONAL AP PTCLDY    72  67  84 N5        29.93S
NAPLES         MOCLDY    79  74  84 W3        29.92S
MIAMI          MOCLDY    77  71  82 S5        29.91F
WEST KENDALL   CLEAR     76  72  87 S6        29.92F
HOMESTEAD      PTCLDY    73  71  94 SE5       29.92F
MARATHON       CLOUDY    82  76  81 S5        29.93F
BOCA CHICA NAS CLOUDY    81  72  74 S9        29.91F
KEY WEST INTL  PTCLDY    82  73  74 S9        29.92F

...INTERNATIONAL WEATHER...

CITY           SKY/WX    TMP DP  RH WIND       PRES   REMARKS
NASSAU BAHAMAS NOT AVBL
CANCUN MEXICO  PTCLDY    81  75  83 E9        29.88F
COZUMEL MEXICO PTCLDY    75  73  94 SE8       29.89S

ADJACENT COASTAL WATERS...

STATION/POSITION TIME  SKY/WX   TEMP    WIND        PRES    WAVE
                                AIR SEA DIR/SP/G            HT/PER
                 (UTC)          (F)     (DEG/KT/KT) (MB)    (FT/S)
PULASKI SHOAL LI 0600            78     160/ 17/ 19 1012.8F
SAND KEY         0650            80     230/  7/  8 1013.2F
SOMBRERO KEY     0700            81     190/  9/  9 1013.9F
LONG KEY         0600            82 85  180/ 10/ 11 1014.8F
MOLASSES REEF    0700            81 80  180/  9/  9 1013.3F
FOWEY ROCKS      NOT AVBL

$$


USA.gov is the U.S. government's official web portal to all federal, state and local government web resources and services.